Location: Eppenbrunn
(49.1158°N, 7.5601°E)
Time: 17:25:57
(UTC+00:00)

STARLINK-1224 - Pass Details

Date: 09 April 2020
Orbit: 549 x 551 km, 53.0° (Epoch: 25 May)

Event Time Altitude Azimuth Distance (km) Brightness Sun altitude
Rises 18:59:02 0° 290° (WNW) 2,729 9.8 -7.9°
Reaches altitude 10° 19:01:18 10° 294° (WNW) 1,834 8.0 -8.3°
Maximum altitude 19:05:26 63° 16° (NNE) 619 3.9 -8.9°
Enters shadow 19:09:16 12° 98° (E) 1,711 5.5 -9.5°
